Location: Hinxhill
(51.1333°N, 0.9333°E)
Time: 23:27:20
(UTC+00:00)

Daily predictions for brighter satellites

Satellite Brightness Start Highest point End
(mag) Time Altitude Azimuth Time Altitude Azimuth Time Altitude Azimuth
Timation 1 Rocket 4.3 18:26:34 10° SSW 18:32:30 76° ESE 18:38:30 10° NE
CSL-04 Rocket 3.7 18:29:23 10° SSE 18:34:47 74° ENE 18:40:18 10° NNW
CREW DRAGON DEMO-1 DEB 2.8 18:41:52 10° W 18:44:54 84° N 18:47:57 10° E
USA 102 3.9 18:40:07 10° SSE 18:46:36 87° ENE 18:49:20 10° NNW
USA 229 DEB 4.5 18:43:06 10° WSW 18:49:33 53° NNW 18:56:27 10° NE
USA 229 4.5 18:43:11 10° WSW 18:49:39 54° NNW 18:56:33 10° NE
Cosmos 1782 Rocket 3.6 18:45:20 10° S 18:49:41 64° E 18:54:06 10° NNE
Cosmos 1975 2.8 18:46:39 10° S 18:50:44 80° E 18:54:50 10° NNE
Cosmos 2233 Rocket 4.0 18:44:41 10° S 18:50:57 89° ESE 18:57:11 10° N
Cosmos 1025 Rocket 3.7 18:46:59 10° N 18:51:02 35° ENE 18:55:03 10° SE
NOSS 3-2 (C) 4.4 18:44:21 10° NW 18:51:14 49° NNE 18:58:44 11° ESE
CZ-4 R/B 2.7 18:47:31 10° S 18:51:36 47° W 18:55:40 10° NNW
Cosmos 1908 Rocket 3.9 18:47:34 10° SSW 18:51:54 73° WNW 18:56:19 10° N
USA 186 2.5 18:49:32 10° SE 18:52:21 33° ENE 18:55:20 10° N
Meteor 2-11 Rocket 4.4 18:47:23 10° S 18:53:32 79° E 18:59:43 10° NNE
Nadezhda 4 Rocket 4.4 18:51:55 10° N 18:57:40 40° ENE 19:03:23 10° SE
Cosmos 2082 Rocket 4.3 18:57:28 10° N 19:00:10 13° NNE 19:02:53 10° NE
Cosmos 1544 4.1 18:58:01 10° SSW 19:01:35 51° WNW 19:05:11 10° N
NOSS 3-1 (A) 4.2 18:56:05 10° WSW 19:01:41 53° NW 19:08:22 10° NE
Cosmos 1937 Rocket 3.5 18:56:32 10° S 19:01:44 66° ESE 19:06:55 10° NNE
OBJECT-B 2.3 19:01:22 15° ESE 19:02:54 20° ENE 19:05:21 10° NNE
MOS 1 Rocket 3.2 18:58:41 10° NNE 19:03:10 57° E 19:07:26 10° S
Cosmos 1842 4.2 19:02:10 10° NNW 19:05:56 51° W 19:09:41 10° S
FREGAT/IRIS 3.2 19:05:31 18° ESE 19:06:55 29° ENE 19:09:15 10° N
Cosmos 1674 3.9 19:04:34 10° NNE 19:07:47 24° ENE 19:09:42 17° ESE
Cosmos 1975 Rocket 3.4 19:06:37 10° NNW 19:10:57 67° W 19:15:13 10° S
NOSS 8 (H) 4.0 19:10:24 10° SW 19:13:30 69° SE 19:16:33 10° NE
NOSS 8 (E) 4.4 19:10:28 10° SW 19:13:36 71° NW 19:16:39 10° NE
In-Cosmos 22 4.1 19:09:38 10° N 19:14:54 63° ENE 19:20:11 10° SSE
NOSS 2-2 (E) 3.4 19:13:57 10° SSW 19:17:20 46° SE 19:21:13 10° NE
Cosmos 1707 2.6 19:16:38 10° N 19:20:30 89° ENE 19:24:19 10° S
Resurs 01 Rocket 2.8 19:19:17 19° ESE 19:21:21 26° ENE 19:25:04 10° N
H-2A R/B 2.6 19:16:49 10° S 19:21:41 58° W 19:26:43 10° NNW
ARGOS 3.4 19:17:30 10° S 19:22:51 74° WSW 19:28:16 10° NNW
ATLAS 2AS CENTAUR R/B 4.4 19:24:48 14° E 19:24:48 14° E 19:27:08 10° ENE
Lacrosse 4 Rocket 3.8 19:22:25 10° N 19:23:23 11° NNE 19:24:21 10° NE
CZ-2C R/B 2.9 19:18:16 10° NNE 19:23:37 47° E 19:28:59 10° S
SJ-6B 2.7 19:21:47 12° SSE 19:25:06 64° ENE 19:28:50 10° N
NOSS 2-2 (D) 3.4 19:22:26 10° SSW 19:25:48 44° SE 19:29:35 10° NE
Sich 1 Rocket 3.6 19:23:24 10° S 19:27:54 89° W 19:32:29 10° N
MOS 1 4.3 19:24:01 10° SSE 19:29:42 76° ENE 19:35:26 10° NNW
Cosmos 1048 Rocket 4.1 19:24:53 10° NNW 19:30:10 66° ENE 19:34:10 18° SE
ATLAS CENTAUR R/B 3.8 19:29:26 10° WNW 19:32:00 17° NNW 19:34:31 10° NNE
CENTAUR R/B 3.3 19:24:30 10° NW 19:32:14 66° NE 19:38:33 20° ESE
Cosmos 1844 4.5 19:30:17 10° SSE 19:35:04 28° ESE 19:39:50 10° NE
ATLAS 3B R/B 3.6 19:31:55 10° NW 19:38:10 38° NNE 19:42:49 18° E
ARIANE 5 R/B 3.8 19:37:43 22° E 19:38:40 24° ENE 19:42:08 10° N
SL-08 RB Rocket 4.0 19:34:40 10° S 19:39:15 68° WSW 19:43:49 10° NNW
Cosmos 2263 Rocket 2.7 19:34:06 10° SW 19:39:37 63° NW 19:45:12 10° NNE
USA 238 DEB 3.8 19:33:04 10° NW 19:40:16 86° NE 19:45:38 21° SE
USA 238 3.8 19:33:10 10° NW 19:40:22 86° NE 19:45:43 21° SE
ISS -2.6 19:38:40 10° SSW 19:41:14 27° SSE 19:41:14 27° SSE
Abrixas rocket 2.1 19:39:34 10° WSW 19:42:19 47° S 19:42:32 45° SSE
SJ 16-02 3.8 19:39:54 10° WSW 19:43:30 24° NW 19:47:08 10° N
Cosmos 1513 Rocket 4.5 19:37:18 10° S 19:43:36 90° WNW 19:49:50 10° N
Cosmos 1844 Rocket 3.0 19:41:42 10° S 19:46:52 41° ESE 19:52:05 10° NE
Okean 2 Rocket 3.1 19:43:31 10° S 19:48:02 86° WNW 19:52:33 10° N
Cosmos 1464 Rocket 4.0 19:45:37 10° S 19:51:44 83° W 19:57:58 10° N
Lacrosse 5 rocket 2.5 19:47:40 10° W 19:51:50 43° N 19:55:14 15° NE
Okean 1 Rocket 3.5 19:51:22 34° SE 19:52:26 39° E 19:56:38 10° NNE
Ariane Rocket 3.5 19:50:57 10° S 19:55:57 60° WSW 20:01:01 10° NNW
Cosmos 1092 Rocket 3.9 19:50:07 10° N 19:56:15 65° ENE 20:00:15 23° SSE
Meteor 1-12 Rocket 4.5 19:53:27 10° SSW 19:59:22 77° WNW 20:05:13 10° N
Meteor 1-15 Rocket 4.2 19:53:59 10° S 19:59:30 62° E 20:05:09 10° NNE
Resurs 1-3 3.5 19:57:58 29° SSE 20:00:10 81° ENE 20:04:36 10° NNW
Cosmos 1300 Rocket 3.9 19:56:40 10° SSW 20:01:03 66° WNW 20:05:29 10° N
Cosmos 494 Rocket 3.9 19:57:55 10° NNW 20:03:12 79° ENE 20:05:36 33° SSE
Cosmos 2026 Rocket 4.1 19:57:28 10° N 20:03:46 58° ENE 20:06:56 30° SE
CZ-2C R/B 3.9 20:00:38 10° NNE 20:04:56 46° E 20:05:30 43° ESE
Meteor 2-13 Rocket 4.4 19:58:48 10° N 20:05:01 77° ENE 20:09:01 23° SSE
Cosmos 2298 Rocket 3.9 20:00:15 10° SSW 20:05:34 77° ESE 20:10:55 10° NNE
Cosmos 1833 Rocket 3.7 20:00:56 10° NNW 20:06:02 33° NE 20:07:47 27° ENE
SPOT 3 Rocket 3.4 20:03:38 27° SSE 20:06:32 84° ENE 20:11:43 10° NNW
NOSS 3-2 (A) 4.2 20:01:09 10° NW 20:08:30 70° SW 20:13:56 24° SSE
NOSS 2-2 (C) 3.2 20:06:46 10° SW 20:10:19 77° NW 20:14:27 10° NE
Cosmos 1536 Rocket 4.4 20:10:40 10° NNW 20:14:58 50° W 20:18:27 15° SSW
Cosmos 1428 Rocket 4.5 20:09:52 10° N 20:16:10 67° ENE 20:18:51 35° SSE
Cosmos 1626 2.4 20:14:39 10° N 20:17:51 51° NE 20:17:51 51° NE
Terra 3.5 20:19:13 19° NE 20:19:13 19° NE 20:22:23 10° NNE
Cosmos 1892 Rocket 4.0 20:16:13 10° N 20:20:06 43° ENE 20:20:06 43° ENE
CREW DRAGON DEMO-1 DEB 3.7 20:17:34 10° W 20:19:51 47° W 20:19:51 47° W
Cosmos 2279 Rocket 4.4 20:20:51 38° ESE 20:21:30 39° E 20:27:15 10° NNE
DMSP B5D2-2 4.4 20:20:41 10° N 20:25:57 68° WNW 20:31:12 10° SSW
USA 234 3.2 20:19:49 10° ENE 20:26:15 57° SE 20:32:41 10° SW
Meteor 2-5 Rocket 3.7 20:22:30 10° NNW 20:28:09 87° W 20:30:35 36° S
OBJECT-B 2.4 20:34:34 28° WSW 20:35:06 30° W 20:38:02 10° NNW
Cosmos 2150 Rocket 4.3 20:30:23 10° SSW 20:35:45 71° WNW 20:41:14 10° NNE
Cosmos 1805 3.3 20:35:56 74° W 20:36:02 75° W 20:39:59 10° N
SPOT 5 3.8 20:40:10 38° ENE 20:40:10 38° ENE 20:44:56 10° N
NOSS 3-2 (C) 4.2 20:35:17 10° NW 20:42:39 68° SW 20:46:12 37° SSE
Cosmos 1674 4.2 20:39:52 10° NNW 20:43:22 33° W 20:44:32 27° SW
Meteor 1-22 Rocket 4.2 20:43:04 50° SSE 20:44:35 72° E 20:50:37 10° NNE
Cosmos 2082 Rocket 2.9 20:40:47 10° NNW 20:46:00 37° NE 20:46:33 36° ENE
Cosmos 1125 Rocket 3.5 20:41:08 10° SSW 20:46:28 82° WNW 20:51:49 10° NNE
Okean 1-7 Rocket 4.0 20:42:48 10° N 20:46:41 53° NE 20:46:41 53° NE
Cosmos 1733 4.1 20:52:17 44° N 20:52:17 44° N 20:55:05 10° N
SL-14 R/B 3.8 20:48:21 10° NNW 20:51:36 56° NW 20:51:36 56° NW
COSMOS 2406 3.0 20:48:05 10° NNW 20:53:48 78° ENE 20:54:20 71° ESE
Meteor 1-24 Rocket 3.8 20:49:33 10° NNW 20:55:00 70° W 20:56:22 50° SSW
ERS-1 Rocket 3.3 20:57:24 52° NE 20:57:24 52° NE 21:01:50 10° N
CRYOSAT 2 4.3 20:52:00 10° N 20:56:57 87° W 20:57:03 85° SW
Resurs 01 Rocket 2.5 20:56:51 39° SW 20:57:39 44° W 21:01:57 10° NNW
Cosmos 2098 Rocket 4.1 20:55:48 10° N 21:03:05 66° ENE 21:03:50 62° ESE
Lacrosse 4 Rocket 2.9 20:59:32 10° NNW 21:02:11 29° NNE 21:02:11 29° NNE
CZ-2C R/B 4.3 20:58:52 10° N 21:03:46 34° WNW 21:08:43 10° SW
Landsat 7 3.9 21:04:41 74° W 21:04:41 74° W 21:09:21 10° NNW
Cosmos 2266 Rocket 4.1 20:59:46 10° N 21:05:35 55° ENE 21:05:35 55° ENE
Exosat Rocket 3.8 21:01:41 10° SW 21:07:05 65° WNW 21:12:04 10° NNE
Cosmos 1655 Rocket 3.8 21:05:52 10° N 21:12:09 77° E 21:12:30 74° ESE
ATLAS CENTAUR R/B 4.1 21:11:37 10° N 21:12:20 10° N 21:13:03 10° N
ATLAS 2AS CENTAUR R/B 3.0 21:04:40 10° SSW 21:12:26 59° SE 21:20:07 10° NE
IGS 5A 4.4 21:13:35 46° NW 21:13:35 46° NW 21:16:52 10° NNW
SPOT 1/Viking Rocket 3.5 21:14:25 77° W 21:14:25 77° W 21:19:31 10° NNW
ARIANE 5 R/B 3.4 21:15:16 46° W 21:15:16 46° W 21:19:06 10° NNW
Cosmos 2278 Rocket 4.0 21:22:33 19° NE 21:22:33 19° NE 21:24:11 10° NE
Cosmos 1844 4.1 21:13:15 10° SW 21:18:53 60° NW 21:24:28 10° NNE
Cosmos 1634 Rocket 4.5 21:19:01 26° SW 21:22:23 56° WNW 21:28:30 10° N
CENTAUR R/B 3.7 21:15:22 10° NW 21:23:02 48° WSW 21:25:44 38° SSW
Spot 2 Rocket 4.0 21:28:19 52° W 21:28:19 52° W 21:33:05 10° NNW
ATLAS 3B R/B 2.5 21:22:44 10° NW 21:29:35 87° SW 21:30:03 79° SSE
Cosmos 1844 Rocket 3.8 21:25:30 10° WSW 21:30:46 42° NW 21:36:07 10° NNE
Lacrosse 5 rocket 2.9 21:27:28 10° WNW 21:30:50 37° NNW 21:30:50 37° NNW
Cosmos 909 Rocket 4.0 21:40:35 10° NW 21:46:53 81° NW 21:46:53 81° NW
Cosmos 1833 Rocket 3.3 21:44:45 10° NW 21:49:28 52° WNW 21:49:28 52° WNW
Cosmos 2251 Rocket 4.3 21:49:14 10° NNW 21:53:17 51° NW 21:53:17 51° NW
Terra 3.1 21:58:07 38° NNW 21:58:07 38° NNW 22:01:05 10° NNW
USA 234 3.4 22:02:56 10° ENE 22:09:26 70° NNW 22:15:56 10° WSW
SPOT 5 4.4 22:19:24 34° WNW 22:19:24 34° WNW 22:23:04 10° NNW
Cosmos 2082 Rocket 3.5 22:24:52 10° NW 22:28:23 35° WNW 22:28:23 35° WNW
NOSS 3-4 (A) 4.2 22:41:29 48° N 22:41:29 48° N 22:46:42 10° NE
NOSS 3-4 (C) 4.2 22:41:39 47° N 22:41:39 47° N 22:46:48 10° NE
Lacrosse 4 Rocket 4.4 22:38:14 10° NW 22:38:29 11° NW 22:38:29 11° NW
CZ-4C R/B 4.3 23:02:00 20° NE 23:02:00 20° NE 23:03:51 10° NE
Cosmos 2278 Rocket 3.6 23:04:22 35° NNW 23:04:22 35° NNW 23:08:20 10° NNE
ATLAS 2AS CENTAUR R/B 3.5 22:59:08 26° W 23:03:41 55° NNW 23:11:19 10° NE
ATLAS 3B R/B 4.5 23:14:15 10° WNW 23:17:17 20° W 23:17:17 20° W
NOSS 3-1 (C) 4.4 23:21:56 10° NW 23:28:49 57° NNE 23:28:49 57° NNE
USA 234 4.1 23:45:46 10° ENE 23:54:28 36° NW 23:58:25 10° WNW
